Regional Weather Roundup
Issued by NWS Wakefield, VA

Home | Current Version | Previous Version | Text Only | Print | Product List | Glossary On
Versions: 1 2 3 4 5 6 7 8 9 10 11 12 13 14 15 16 17 18 19 20 21 22 23 24 25 26 27
000
ASUS41 KAKQ 311510
RWRAKQ

REGIONAL WEATHER ROUNDUP
NATIONAL WEATHER SERVICE WAKEFIELD VA
1100 AM EDT FRI OCT 31 2014

Note: "fair" indicates few or no clouds below 12,000 feet with no
significant weather and/or obstructions to visibility. * = Denotes
station may not report precipitation (e.g., rain,snow,etc.),
thunder or fog.

VAZ042-051-052>054-056-311600-
NORTHERN VIRGINIA

CITY           SKY/WX    TMP DP  RH WIND       PRES   REMARKS
WASH NATIONAL  CLOUDY    53  39  59 NE6       29.99F
DULLES         PTSUNNY   50  38  63 E6        29.98F
FORT BELVOIR   CLOUDY    52  40  64 VRB3      29.99F
QUANTICO       MOSUNNY   51  44  77 VRB6      29.99F
FREDERICKSBRG* SUNNY     53  44  70 E5        29.97F
STAFFORD*      SUNNY     52  41  67 E5        30.02S
WARRENTON      CLOUDY    52  47  83 N3        29.97F
CULPEPER*      CLOUDY    48  39  71 CALM      29.98F
MANASSAS*      NOT AVBL
LEESBURG*      CLOUDY    50  43  76 CALM      29.99S
WINCHESTER     PTSUNNY   52  32  46 CALM      29.96F
FRONT ROYAL*   MOSUNNY   46  36  66 CALM      29.96F
LURAY*         CLOUDY    46  39  76 S3        29.96F
$$

VAZ048-049-060>072-079>083-311600-
CENTRAL AND SOUTH CENTRAL VIRGINIA...AND NORTH CENTRAL NORTH CAROLINA

CITY           SKY/WX    TMP DP  RH WIND       PRES   REMARKS
RICHMOND       MOSUNNY   57  42  57 NE7       29.95F
CHESTERFIELD*  PTSUNNY   55  36  47 NE7       29.96F
PETERSBURG*    LGT RAIN  54  41  60 N6        29.95F
HANOVER        MOSUNNY   54  41  61 VRB5      29.97F
TAPPAHANNOCK*  SUNNY     53  43  66 N3        29.97F
CHARLOTTSVILLE CLOUDY    50  37  61 E3        29.97S
ORANGE*        PTSUNNY   52  39  62 N3        29.98F
LOUISA*        CLOUDY    50  39  66 CALM      29.95F
FARMVILLE*     SUNNY     52  37  58 NE3       29.94F
CREWE*         SUNNY     53  40  60 E6        29.95F
FORT PICKETT*  SUNNY     53  40  60 E6        29.94F
LUNENBURG*     SUNNY     52  41  66 NE5       29.94F
SOUTH HILL*    SUNNY     55  45  67 CALM      29.99F
LAWRENCEVILLE* SUNNY     54  44  67 NE7       29.93F
ROANOKE RAPIDS SUNNY     54  43  66 NE7       29.93F
RALEIGH        MOSUNNY   54  42  64 NE5       29.95F
$$

VAZ088>098-311600-
SOUTHEAST VIRGINIA

CITY           SKY/WX    TMP DP  RH WIND       PRES   REMARKS
NORFOLK        CLOUDY    58  40  51 NE14      29.90F
VIRGINIA BEACH CLOUDY    59  46  62 N14       29.90F
NORFOLK NAVAL  CLOUDY    60  40  47 N13       29.92F
WEST POINT*    PTSUNNY   53  47  78 N6        29.95F
NEWPORT NEWS   CLOUDY    59  43  55 NE8       29.92F
LANGLEY AFB    CLOUDY    58  43  57 NE10      29.92F
FORT EUSTIS    CLOUDY    55  46  72 N5        29.91F
WILLIAMSBURG*  CLOUDY    55  50  82 CALM      29.94F
HR EXEC AP*    CLOUDY    57  43  58 N6        29.93F
FRANKLIN*      MOSUNNY   55  46  71 N7        29.92F
WAKEFIELD      MOSUNNY   56  46  69 VRB5      29.93F
$$

VAZ020-022-025-037-045-311600-
WEST CENTRAL AND SOUTHWEST VIRGINIA

CITY           SKY/WX    TMP DP  RH WIND       PRES   REMARKS
STAUNTON*      CLOUDY    45  36  72 CALM      29.98F
HOT SPRINGS VA CLOUDY    38  32  78 W3        29.89F
LYNCHBURG      CLOUDY    50  34  54 VRB3      29.97F
DANVILLE       CLOUDY    52  37  56 NE6       29.97F
SOUTH BOSTON*  NOT AVBL
MARTINSVILLE   CLOUDY    49  38  67 CALM      29.99F
ROANOKE        CLOUDY    46  36  68 CALM      29.99F
BLACKSBURG     CLOUDY    45  39  81 CALM      29.97F
DUBLIN*        CLOUDY    43  39  84 CALM      29.96F
MARION*        CLOUDY    44  36  75 E3        29.96F
HILLSVILLE*    CLOUDY    41  36  81 SW5       29.94S
RICHLANDS*     CLOUDY    46  38  73 CALM      29.93F
WISE*          CLOUDY    45  36  70 CALM      29.94F
ABINGDON*      CLOUDY    47  40  76 CALM      29.94F
$$

MDZ021>025-VAZ099-100-311600-
SOUTHERN MARYLAND AND THE DELMARVA PENINSULA

CITY           SKY/WX    TMP DP  RH WIND       PRES   REMARKS
PATUXENT RIVER CLOUDY    53  40  61 NE7       29.96F
BAY BRIDGE APT   N/A     50  34  53 NE3       29.99F
LEONARDTOWN    PTSUNNY   50  39  66 CALM      29.98S
DOVER          PTSUNNY   49  42  75 NE9       29.95F
GEORGETOWN     CLOUDY    51  39  63 NE9       29.97F
EASTON         CLOUDY    52  39  62 NE6       30.01F
CAMBRIDGE      PTSUNNY   52  37  58 N5        29.96F
SALISBURY      CLOUDY    53  40  61 N5        29.96F
OCEAN CITY     CLOUDY    53  40  61 N8        29.95S
WALLOPS ISLAND CLOUDY    52  40  63 NE10      29.94F
ACCOMACK*      CLOUDY    52  39  62 NE7       29.94F
$$

NCZ012>017-030>032-311600-
EASTERN NORTH CAROLINA

CITY           SKY/WX    TMP DP  RH WIND       PRES   REMARKS
ELIZABETH CITY CLOUDY    62  48  60 N13       29.89F
AHOSKIE*       NOT AVBL
EDENTON*       CLOUDY    60  45  57 NE13      29.89F
CURRITUCK*     CLOUDY    60  45  59 N13       29.89F HAZE
KILL DEVIL HLS CLOUDY    60  46  59 NE9G17    29.85F
MANTEO         CLOUDY    60  47  61 NE13G18   29.86S
CAPE HATTERAS  CLOUDY    59  54  83 NE16G25   29.82F
TARBORO*       SUNNY     58  46  66 N5        29.93F
GOLDSBORO      SUNNY     58  49  73 NE7       29.90F
WASHINGTON     SUNNY     58  46  63 NE8       29.90F
GREENVILLE     SUNNY     59  45  58 NE7       29.93S
NEW BERN       SUNNY     62  48  60 N9        29.90F
WILMINGTON     SUNNY     61  46  57 N13       29.89F
$$

VAZ048-311600-
ELSEWHERE

CITY           SKY/WX    TMP DP  RH WIND       PRES   REMARKS
HARRISBURG PA  CLOUDY    49  35  58 CALM      29.99F
BALTIMORE      CLOUDY    51  38  60 E8        29.98F
ANNAPOLIS      CLOUDY    50  36  58 E5        29.99F
ANDREWS AFB    CLOUDY    51  38  63 E8        29.98S
WILMINGTON DE  MOSUNNY   50  38  63 N9        30.00F
PHILADELPHIA   CLOUDY    49  35  58 NE6       29.99F
WILDWOOD NJ*   CLOUDY    50  37  62 N7        29.97F
ATLANTIC CITY  CLOUDY    49  40  71 NE6       29.95F
HENDERSON NC   MOSUNNY   53  41  64 N5        29.95F
GREENSBORO     CLOUDY    49  38  65 E7        29.95F
ROCKY MOUNT    SUNNY     58  44  60 NE7       29.93F
FAYETTEVILLE   SUNNY     58  45  62 N8        29.92F
CHARLOTTE      PTSUNNY   54  39  57 VRB5      29.95F
$$

VAZ100-311600-
MARINE

STATION/POSITION TIME  TEMP    WIND        PRES    WAVE   SWELL
                       AIR SEA DIR/SP/G            HT/PER HT/PER
                 (UTC) (F)     (DEG/KT/KT) (MB)    (FT/S) (FT/S)
44066 TX TWR #4  1500   57 64   70/ 12/ 16 1013.5F   2/ 5   2/ 6
CAPE MAY NJ      1500   50 64   50/  5/  9 1014.0F
LEWES DE         1500   51 58   20/ 13/ 15 1014.1F
15NM E FENWICK I 1500   54 63              1013.4F   3/ 4
OCEAN-CITY-INLET 1500   54 60   20/  8/ 13 1013.7R
WACHAPREAGUE VA  1500   53 59   10/  8/ 12 1013.4F
THOMAS POINT MD  1500   50 60   60/  9/ 10 1016.4F
GOOSES REEF MD   1500   52      70/  6/  8 1015.7R
COVE POINT MD    1500   50      90/ 10/ 12 1014.7F
SOLOMONS ISLAND  1500      62                N/A
BISHOPS HEAD MD  1500   51 57   40/  8/ 12 1014.0F
PINEY POINT MD   1500           60/  7/ 10   N/A
POTOMAC MD       1500   54      60/ 12/ 14 1013.9F
CAMBRIDGE MD     1500   51 59   40/  7/  9 1014.7S
LEWISETTA VA     1500   54 60   50/  7/ 11 1013.9S
RAPPAHANNOCK LGT 1500           30/ 18/ 19 1013.7F
STINGRAY PT      1500   55      50/ 14/ 17 1014.3F
YORK RVR RNG VA  1500   56      50/ 15/ 17 1012.6F
YORKTOWN VA      1500   55 63   10/  7/  8 1012.9F
JAMESTOWN VA     1500   52      30/  4/  8   N/A
DOMINION TERM VA 1500   57      40/  4/ 10 1013.0F
KIPTOPEKE VA     1500      66   40/  8/ 10   N/A
CHES BAY BRIDGE  1500   56 63   20/ 15/ 16 1012.1F
CHESAPEAKE LGHT  1400   57      10/ 16/ 17 1013.8R
WILLOUBY STN VA  1500   56      40/ 12/ 14 1011.6F
S CRANEY ISL VA  1500           10/ 12/ 16 1012.5F
CAPE HENRY BUOY  1500      65                N/A     3/ 4
1ST LANDING BUOY 1500   56      30/ 16/ 17 1012.4F
CAPE CHARLES BUO 1500      65                N/A     3/ 4
64NM E OF VA BCH 1500   61 66   30/ 17/ 19 1011.2F   3/ 4   2/ 7
DUCK PIER NC     1500   60 65   30/ 18/ 23 1010.8R
44100 DUCK FRF   1500      67                N/A     4/ 4
OREGON INLET NC  1500   61 65   20/ 17/ 21 1010.5R
HATTERAS NC      1500   60 65   20/ 23/ 27 1010.2F
DIAMOND SHLS NC  1500   66      10/ 25/ 31 1008.2F   6/ 7
CAPE LOOKOUT NC  1400   61      10/ 18/ 22 1010.7F
$$



USA.gov is the U.S. government's official web portal to all federal, state and local government web resources and services.